Skip Page Navigation
NASA JPL Caltech
NASA Logo - Jet Propulsion Laboratory + View the NASA Portal
+ Center for Near-Earth Object Studies
JPL Home Earth Solar System Stars & Galaxies Technology
JPL Solar System Dynamics
BODIES ORBITS EPHEMERIDES TOOLS PHYSICAL DATA DISCOVERY FAQ SITE MAP
JPL Small-Body Database Browser
Search: [ help ]  
175406 (2006 OL14)
Classification: Main-belt Asteroid          SPK-ID: 2175406
Ephemeris | Orbit Diagram | Orbital Elements | Mission Design | Physical Parameters | Discovery Circumstances | Close-Approach Data ]

[ show orbit diagram ]
Orbital Elements at Epoch 2459200.5 (2020-Dec-17.0) TDB
Reference: JPL 16 (heliocentric ecliptic J2000)
 Element Value Uncertainty (1-sigma)   Units 
e .1692070805201943 3.6458e-08  
a 2.273864997520893 9.8067e-09 au
q 1.889110939793324 8.2757e-08 au
i 3.024899723111611 4.2798e-06 deg
node 116.4275421234021 9.4482e-05 deg
peri 177.6230600953006 9.5616e-05 deg
M 85.50137271902976 1.539e-05 deg
tp 2458903.048592598460
(2020-Feb-23.54859260)
5.3014e-05 TDB
period 1252.406870898358
3.43
8.1021e-06
2.218e-08
d
yr
n .2874465226638132 1.8596e-09 deg/d
Q 2.658619055248462 1.1466e-08 au
  Orbit Determination Parameters
   # obs. used (total)      285  
   data-arc span      8365 days (22.90 yr)  
   first obs. used      1998-01-25  
   last obs. used      2020-12-20  
   planetary ephem.      DE441  
   SB-pert. ephem.      SB441-N16  
   condition code      0  
   norm. resid. RMS      .65006  
   source      ORB  
   producer      Otto Matic  
   solution date      2021-Apr-13 21:05:16  

Additional Information
 Earth MOID = .871069 au 
 Jupiter MOID = 2.52279 au 
 T_jup = 3.590 
[ show covariance matrix ]

Ephemeris | Orbit Diagram | Orbital Elements | Mission Design | Physical Parameters | Discovery Circumstances | Close-Approach Data ]

Physical Parameter Table
Parameter Symbol Value Units Sigma Reference Notes
absolute magnitude H 17.46   n/a MPCxxxxx  

175406 (2006 OL14)          Discovered 2006-Jul-25 by NEAT at Palomar
Reference: 20080122/Numbers.arcLast Updated: 2008-01-28

[ hide close-approach data ]
Close-Approach Data   ...sorted by Date/Time (TDB)
Date/Time (TDB) Time Uncertainty
(days_HH:MM)
Body Nominal Distance (au) Minimum Distance (au) Maximum Distance (au) V-relative (km/s) V-infinity (km/s) JD (TDB) Time Uncertainty (minutes) Semi-major axis (km) Semi-minor axis (km) range-LOV angle (deg) N-sigma BP Orbit Ref. Reference Modified
2011-Dec-06 03:21 < 00:01 Hebe 0.0311562535094993 0.0311552806689121 0.0311572263505087 6.05205265054685 6.05205261757756 2455901.639435089 0.39502870375782 85.7721269383761 48.3396292074703 -86.8251909126135 96290.7736365139 T 16 CATAB v2.0f-lin.ifort 2021-Apr-13 21:05:16 2021-Apr-13 21:05
Ephemeris | Orbit Diagram | Orbital Elements | Mission Design | Physical Parameters | Discovery Circumstances | Close-Approach Data ]
ABOUT SSD CREDITS/AWARDS PRIVACY/COPYRIGHT GLOSSARY LINKS
FirstGov 2021-May-08 23:44 UT
(server date/time)  
NASA Home Page
Site Manager:   Ryan S. Park
Webmaster  Alan B. Chamberlin